Time,TemperatureF,DewpointF,PressureIn,WindDirection,WindDirectionDegrees,WindSpeedMPH,WindSpeedGustMPH,Humidity,HourlyPrecipIn,Conditions,Clouds,dailyrainin,SoftwareType,DateUTC
2013-09-10 00:03:00,63.5,26.1,29.97,WSW,238,5.4,6.3,24,0.00,,,0.00,VWS V14.01,2013-09-10 07:03:00,
2013-09-10 00:08:00,63.3,25.9,29.97,WSW,245,0.0,0.0,24,0.00,,,0.00,VWS V14.01,2013-09-10 07:08:00,
2013-09-10 00:14:00,62.8,25.5,29.97,WSW,246,0.0,0.0,24,0.00,,,0.00,VWS V14.01,2013-09-10 07:14:00,
2013-09-10 00:20:00,62.4,26.2,29.97,WSW,246,0.0,0.0,25,0.00,,,0.00,VWS V14.01,2013-09-10 07:20:00,
2013-09-10 00:25:00,62.1,24.9,29.97,WSW,246,0.0,0.0,24,0.00,,,0.00,VWS V14.01,2013-09-10 07:25:00,
2013-09-10 00:30:00,61.7,24.6,29.97,WSW,246,0.0,0.0,24,0.00,,,0.00,VWS V14.01,2013-09-10 07:30:00,
2013-09-10 00:36:00,61.3,24.3,29.97,WSW,246,0.0,0.0,24,0.00,,,0.00,VWS V14.01,2013-09-10 07:36:00,
2013-09-10 00:41:00,61.3,24.3,29.97,WSW,246,0.0,0.0,24,0.00,,,0.00,VWS V14.01,2013-09-10 07:41:00,
2013-09-10 00:47:00,61.2,24.1,29.97,WSW,246,0.0,0.0,24,0.00,,,0.00,VWS V14.01,2013-09-10 07:47:00,
2013-09-10 00:52:00,61.2,24.1,29.97,WSW,246,0.0,0.0,24,0.00,,,0.00,VWS V14.01,2013-09-10 07:52:00,
2013-09-10 00:58:00,61.2,24.1,29.97,WSW,246,0.0,0.0,24,0.00,,,0.00,VWS V14.01,2013-09-10 07:58:00,
2013-09-10 01:04:00,61.0,24.0,29.97,WSW,246,0.0,0.0,24,0.00,,,0.00,VWS V14.01,2013-09-10 08:04:00,
2013-09-10 01:09:00,60.8,23.8,29.97,WSW,246,0.0,0.0,24,0.00,,,0.00,VWS V14.01,2013-09-10 08:09:00,
2013-09-10 01:14:00,60.6,24.6,29.97,WSW,246,0.0,0.0,25,0.00,,,0.00,VWS V14.01,2013-09-10 08:14:00,
2013-09-10 01:20:00,60.6,24.6,29.97,WSW,246,0.0,0.0,25,0.00,,,0.00,VWS V14.01,2013-09-10 08:20:00,
2013-09-10 01:26:00,60.4,24.5,29.97,WSW,246,0.0,0.0,25,0.00,,,0.00,VWS V14.01,2013-09-10 08:26:00,
2013-09-10 01:31:00,60.3,24.3,29.97,WSW,246,0.0,0.0,25,0.00,,,0.00,VWS V14.01,2013-09-10 08:31:00,
2013-09-10 01:37:00,60.1,24.2,29.97,WSW,246,0.0,0.0,25,0.00,,,0.00,VWS V14.01,2013-09-10 08:37:00,
2013-09-10 01:42:00,59.9,24.0,29.97,WSW,246,0.0,0.0,25,0.00,,,0.00,VWS V14.01,2013-09-10 08:42:00,
2013-09-10 01:47:00,59.7,23.9,29.97,WSW,246,0.0,0.0,25,0.00,,,0.00,VWS V14.01,2013-09-10 08:47:00,
2013-09-10 01:52:00,59.5,23.7,29.97,WSW,246,0.0,0.0,25,0.00,,,0.00,VWS V14.01,2013-09-10 08:52:00,
2013-09-10 01:58:00,59.4,23.6,29.97,WSW,246,0.0,0.0,25,0.00,,,0.00,VWS V14.01,2013-09-10 08:58:00,
2013-09-10 02:03:00,59.4,23.6,29.97,WSW,246,0.0,0.0,25,0.00,,,0.00,VWS V14.01,2013-09-10 09:03:00,
2013-09-10 02:08:00,59.2,23.4,29.97,WSW,246,0.0,0.0,25,0.00,,,0.00,VWS V14.01,2013-09-10 09:08:00,
2013-09-10 02:14:00,59.0,23.2,29.97,WSW,246,0.0,0.0,25,0.00,,,0.00,VWS V14.01,2013-09-10 09:14:00,
2013-09-10 02:20:00,58.8,23.1,29.97,WSW,246,0.0,0.0,25,0.00,,,0.00,VWS V14.01,2013-09-10 09:20:00,
2013-09-10 02:25:00,58.8,23.1,29.97,WSW,246,0.0,0.0,25,0.00,,,0.00,VWS V14.01,2013-09-10 09:25:00,
2013-09-10 02:31:00,58.5,22.8,29.97,WSW,246,0.0,0.0,25,0.00,,,0.00,VWS V14.01,2013-09-10 09:31:00,
2013-09-10 02:36:00,58.5,22.8,29.97,WSW,246,0.0,0.0,25,0.00,,,0.00,VWS V14.01,2013-09-10 09:36:00,
2013-09-10 02:42:00,58.3,22.6,29.97,WSW,246,0.0,0.0,25,0.00,,,0.00,VWS V14.01,2013-09-10 09:42:00,
2013-09-10 02:48:00,58.3,22.6,29.97,WSW,246,0.0,0.0,25,0.00,,,0.00,VWS V14.01,2013-09-10 09:48:00,
2013-09-10 02:54:00,58.1,22.5,29.97,WSW,246,0.0,0.0,25,0.00,,,0.00,VWS V14.01,2013-09-10 09:54:00,
2013-09-10 02:59:00,58.1,22.5,29.97,WSW,246,0.0,0.0,25,0.00,,,0.00,VWS V14.01,2013-09-10 09:59:00,
2013-09-10 03:05:00,57.9,22.3,29.97,WSW,246,0.0,0.0,25,0.00,,,0.00,VWS V14.01,2013-09-10 10:05:00,
2013-09-10 03:11:00,57.7,22.2,30.00,WSW,246,0.0,0.0,25,0.00,,,0.00,VWS V14.01,2013-09-10 10:11:00,
2013-09-10 03:17:00,57.7,22.2,30.00,WSW,246,0.0,0.0,25,0.00,,,0.00,VWS V14.01,2013-09-10 10:17:00,
2013-09-10 03:23:00,57.6,22.0,30.00,WSW,246,0.0,0.0,25,0.00,,,0.00,VWS V14.01,2013-09-10 10:23:00,
2013-09-10 03:28:00,57.6,22.0,30.00,WSW,246,0.0,0.0,25,0.00,,,0.00,VWS V14.01,2013-09-10 10:28:00,
2013-09-10 03:33:00,57.6,22.0,30.00,WSW,246,0.0,0.0,25,0.00,,,0.00,VWS V14.01,2013-09-10 10:33:00,
2013-09-10 03:38:00,57.4,21.9,30.00,WSW,246,0.0,0.0,25,0.00,,,0.00,VWS V14.01,2013-09-10 10:38:00,
2013-09-10 03:44:00,57.2,21.7,30.00,WSW,246,0.0,0.0,25,0.00,,,0.00,VWS V14.01,2013-09-10 10:44:00,
2013-09-10 03:50:00,57.2,21.7,30.00,WSW,246,0.0,0.0,25,0.00,,,0.00,VWS V14.01,2013-09-10 10:50:00,
2013-09-10 03:55:00,57.0,21.6,30.00,WSW,246,0.0,0.0,25,0.00,,,0.00,VWS V14.01,2013-09-10 10:55:00,
2013-09-10 04:01:00,56.8,21.4,30.00,WSW,246,0.0,0.0,25,0.00,,,0.00,VWS V14.01,2013-09-10 11:01:00,
2013-09-10 04:06:00,56.8,21.4,30.00,WSW,246,0.0,0.0,25,0.00,,,0.00,VWS V14.01,2013-09-10 11:06:00,
2013-09-10 04:12:00,56.7,21.3,30.00,WSW,246,0.0,0.0,25,0.00,,,0.00,VWS V14.01,2013-09-10 11:12:00,
2013-09-10 04:17:00,56.7,21.3,30.00,WSW,246,0.0,0.0,25,0.00,,,0.00,VWS V14.01,2013-09-10 11:17:00,
2013-09-10 04:23:00,56.7,21.3,30.00,WSW,246,0.0,0.0,25,0.00,,,0.00,VWS V14.01,2013-09-10 11:23:00,
2013-09-10 04:28:00,56.5,21.1,30.00,WSW,246,0.0,0.0,25,0.00,,,0.00,VWS V14.01,2013-09-10 11:28:00,
2013-09-10 04:33:00,56.3,21.0,30.00,WSW,246,0.0,0.0,25,0.00,,,0.00,VWS V14.01,2013-09-10 11:33:00,
2013-09-10 04:39:00,56.3,21.0,30.00,WSW,246,0.0,0.0,25,0.00,,,0.00,VWS V14.01,2013-09-10 11:39:00,
2013-09-10 04:44:00,56.3,21.0,30.00,WSW,246,0.0,0.0,25,0.00,,,0.00,VWS V14.01,2013-09-10 11:44:00,
2013-09-10 04:49:00,56.3,21.0,30.00,WSW,246,0.0,0.0,25,0.00,,,0.00,VWS V14.01,2013-09-10 11:49:00,
2013-09-10 04:54:00,56.1,20.8,30.00,WSW,246,0.0,0.0,25,0.00,,,0.00,VWS V14.01,2013-09-10 11:54:00,
2013-09-10 05:00:00,56.1,20.8,30.00,WSW,246,0.0,0.0,25,0.00,,,0.00,VWS V14.01,2013-09-10 12:00:00,
2013-09-10 05:06:00,55.9,20.6,30.00,WSW,246,0.0,0.0,25,0.00,,,0.00,VWS V14.01,2013-09-10 12:06:00,
2013-09-10 05:11:00,55.9,20.6,30.00,WSW,246,0.0,0.0,25,0.00,,,0.00,VWS V14.01,2013-09-10 12:11:00,
2013-09-10 05:18:00,55.8,20.5,30.00,WSW,246,0.0,0.0,25,0.00,,,0.00,VWS V14.01,2013-09-10 12:18:00,
2013-09-10 05:24:00,55.8,20.5,30.00,WSW,246,0.0,0.0,25,0.00,,,0.00,VWS V14.01,2013-09-10 12:24:00,
2013-09-10 05:30:00,55.8,20.5,30.00,WSW,246,0.0,0.0,25,0.00,,,0.00,VWS V14.01,2013-09-10 12:30:00,
2013-09-10 05:36:00,55.6,20.3,30.00,WSW,246,0.0,0.0,25,0.00,,,0.00,VWS V14.01,2013-09-10 12:36:00,
2013-09-10 05:41:00,55.6,20.3,30.00,WSW,246,0.0,0.0,25,0.00,,,0.00,VWS V14.01,2013-09-10 12:41:00,
2013-09-10 05:47:00,55.4,20.2,30.00,WSW,246,0.0,0.0,25,0.00,,,0.00,VWS V14.01,2013-09-10 12:47:00,
2013-09-10 05:53:00,55.4,20.2,30.00,WSW,246,0.0,0.0,25,0.00,,,0.00,VWS V14.01,2013-09-10 12:53:00,
2013-09-10 05:59:00,55.2,21.0,30.00,WSW,246,0.0,0.0,26,0.00,,,0.00,VWS V14.01,2013-09-10 12:59:00,
2013-09-10 06:05:00,55.0,20.8,30.00,WSW,246,0.0,0.0,26,0.00,,,0.00,VWS V14.01,2013-09-10 13:05:00,
2013-09-10 06:10:00,55.0,20.8,30.00,WSW,246,0.0,0.0,26,0.00,,,0.00,VWS V14.01,2013-09-10 13:10:00,
2013-09-10 06:16:00,54.9,20.6,30.00,WSW,246,0.0,0.0,26,0.00,,,0.00,VWS V14.01,2013-09-10 13:16:00,
2013-09-10 06:21:00,54.9,20.6,30.00,WSW,246,0.0,0.0,26,0.00,,,0.00,VWS V14.01,2013-09-10 13:21:00,
2013-09-10 06:27:00,54.7,20.5,30.00,WSW,246,0.0,0.0,26,0.00,,,0.00,VWS V14.01,2013-09-10 13:27:00,
2013-09-10 06:32:00,54.5,20.3,30.00,WSW,246,0.0,0.0,26,0.00,,,0.00,VWS V14.01,2013-09-10 13:32:00,
2013-09-10 06:38:00,54.5,20.3,30.00,WSW,246,0.0,0.0,26,0.00,,,0.00,VWS V14.01,2013-09-10 13:38:00,
2013-09-10 06:43:00,54.5,20.3,30.00,WSW,246,0.0,0.0,26,0.00,,,0.00,VWS V14.01,2013-09-10 13:43:00,
2013-09-10 06:49:00,54.3,20.2,30.00,WSW,246,0.0,0.0,26,0.00,,,0.00,VWS V14.01,2013-09-10 13:49:00,
2013-09-10 06:55:00,54.3,20.2,30.00,WSW,246,0.0,0.0,26,0.00,,,0.00,VWS V14.01,2013-09-10 13:55:00,
2013-09-10 07:01:00,54.3,20.2,30.00,WSW,246,0.0,0.0,26,0.00,,,0.00,VWS V14.01,2013-09-10 14:01:00,
2013-09-10 07:06:00,54.3,20.2,30.00,WSW,246,0.0,0.0,26,0.00,,,0.00,VWS V14.01,2013-09-10 14:06:00,
2013-09-10 07:12:00,54.3,20.2,30.03,WSW,246,0.0,0.0,26,0.00,,,0.00,VWS V14.01,2013-09-10 14:12:00,
2013-09-10 07:17:00,54.3,20.2,30.03,WSW,246,0.0,0.0,26,0.00,,,0.00,VWS V14.01,2013-09-10 14:17:00,
2013-09-10 07:23:00,54.5,20.3,30.03,WSW,246,0.0,0.0,26,0.00,,,0.00,VWS V14.01,2013-09-10 14:23:00,
2013-09-10 07:28:00,54.5,20.3,30.03,WSW,246,0.0,0.0,26,0.00,,,0.00,VWS V14.01,2013-09-10 14:28:00,
2013-09-10 07:33:00,54.5,20.3,30.03,WSW,246,0.0,0.0,26,0.00,,,0.00,VWS V14.01,2013-09-10 14:33:00,
2013-09-10 07:39:00,54.7,20.5,30.03,WSW,246,0.0,0.0,26,0.00,,,0.00,VWS V14.01,2013-09-10 14:39:00,
2013-09-10 07:45:00,54.9,20.6,30.03,WSW,246,0.0,0.0,26,0.00,,,0.00,VWS V14.01,2013-09-10 14:45:00,
2013-09-10 07:51:00,54.9,20.6,30.03,WSW,246,0.0,0.0,26,0.00,,,0.00,VWS V14.01,2013-09-10 14:51:00,
2013-09-10 07:56:00,55.2,21.0,30.03,WSW,246,0.0,0.0,26,0.00,,,0.00,VWS V14.01,2013-09-10 14:56:00,
2013-09-10 08:02:00,55.2,21.0,30.03,WSW,249,0.0,0.0,26,0.00,,,0.00,VWS V14.01,2013-09-10 15:02:00,
2013-09-10 08:07:00,55.6,21.3,30.03,WSW,249,0.0,0.0,26,0.00,,,0.00,VWS V14.01,2013-09-10 15:07:00,
2013-09-10 08:12:00,55.9,21.6,30.03,WSW,249,0.0,0.0,26,0.00,,,0.00,VWS V14.01,2013-09-10 15:12:00,
2013-09-10 08:18:00,56.1,21.7,30.03,WSW,249,0.0,0.0,26,0.00,,,0.00,VWS V14.01,2013-09-10 15:18:00,
2013-09-10 08:23:00,56.5,22.0,30.03,WSW,249,0.0,0.0,26,0.00,,,0.00,VWS V14.01,2013-09-10 15:23:00,
2013-09-10 08:28:00,56.5,22.0,30.03,WSW,249,0.0,0.0,26,0.00,,,0.00,VWS V14.01,2013-09-10 15:28:00,
2013-09-10 08:33:00,56.7,21.3,30.03,WSW,250,0.0,0.0,25,0.00,,,0.00,VWS V14.01,2013-09-10 15:33:00,
2013-09-10 08:39:00,56.7,21.3,30.03,WSW,250,0.0,0.0,25,0.00,,,0.00,VWS V14.01,2013-09-10 15:39:00,
2013-09-10 08:45:00,56.8,21.4,30.03,WSW,250,0.0,0.0,25,0.00,,,0.00,VWS V14.01,2013-09-10 15:45:00,
2013-09-10 08:50:00,56.8,21.4,30.03,WSW,250,0.0,0.0,25,0.00,,,0.00,VWS V14.01,2013-09-10 15:50:00,
2013-09-10 08:55:00,57.0,21.6,30.03,WSW,250,0.0,0.0,25,0.00,,,0.00,VWS V14.01,2013-09-10 15:55:00,
2013-09-10 09:00:00,57.2,21.7,30.03,WSW,250,0.0,0.0,25,0.00,,,0.00,VWS V14.01,2013-09-10 16:00:00,
2013-09-10 09:06:00,57.4,21.9,30.03,WSW,250,0.0,0.0,25,0.00,,,0.00,VWS V14.01,2013-09-10 16:06:00,
2013-09-10 09:11:00,57.6,22.0,30.03,WSW,250,0.0,0.0,25,0.00,,,0.00,VWS V14.01,2013-09-10 16:11:00,
2013-09-10 09:17:00,57.7,22.2,30.03,WSW,250,0.0,0.0,25,0.00,,,0.00,VWS V14.01,2013-09-10 16:17:00,
2013-09-10 09:22:00,58.1,22.5,30.03,WSW,250,0.0,0.0,25,0.00,,,0.00,VWS V14.01,2013-09-10 16:22:00,
2013-09-10 09:27:00,58.3,22.6,30.03,WSW,250,0.0,0.0,25,0.00,,,0.00,VWS V14.01,2013-09-10 16:27:00,
2013-09-10 09:33:00,58.6,22.9,30.03,WSW,250,0.0,0.0,25,0.00,,,0.00,VWS V14.01,2013-09-10 16:33:00,
2013-09-10 09:39:00,58.8,23.1,30.03,WSW,250,0.0,0.0,25,0.00,,,0.00,VWS V14.01,2013-09-10 16:39:00,
2013-09-10 09:44:00,59.2,23.4,30.03,WSW,250,0.0,0.0,25,0.00,,,0.00,VWS V14.01,2013-09-10 16:44:00,
2013-09-10 09:49:00,59.4,23.6,30.03,WSW,250,0.0,0.0,25,0.00,,,0.00,VWS V14.01,2013-09-10 16:49:00,
2013-09-10 09:55:00,59.5,23.7,30.03,WSW,250,0.0,0.0,25,0.00,,,0.00,VWS V14.01,2013-09-10 16:55:00,
2013-09-10 10:00:00,59.9,24.0,30.03,WSW,250,0.0,0.0,25,0.00,,,0.00,VWS V14.01,2013-09-10 17:00:00,
2013-09-10 10:06:00,60.1,24.2,30.03,WSW,250,0.0,0.0,25,0.00,,,0.00,VWS V14.01,2013-09-10 17:06:00,
2013-09-10 10:12:00,60.4,24.5,30.03,WSW,250,0.0,0.0,25,0.00,,,0.00,VWS V14.01,2013-09-10 17:12:00,
2013-09-10 10:18:00,60.8,23.8,30.03,WSW,250,0.0,0.0,24,0.00,,,0.00,VWS V14.01,2013-09-10 17:18:00,
2013-09-10 10:24:00,61.3,24.3,30.03,WSW,250,0.0,0.0,24,0.00,,,0.00,VWS V14.01,2013-09-10 17:24:00,
2013-09-10 10:30:00,61.7,24.6,30.03,WSW,250,0.0,0.0,24,0.00,,,0.00,VWS V14.01,2013-09-10 17:30:00,
2013-09-10 10:36:00,61.9,24.7,30.03,WSW,250,0.0,0.0,24,0.00,,,0.00,VWS V14.01,2013-09-10 17:36:00,
2013-09-10 10:42:00,62.4,25.2,30.03,WSW,250,0.0,0.0,24,0.00,,,0.00,VWS V14.01,2013-09-10 17:42:00,
2013-09-10 10:48:00,63.0,25.6,30.03,WSW,250,0.0,0.0,24,0.00,,,0.00,VWS V14.01,2013-09-10 17:48:00,
2013-09-10 10:53:00,63.5,26.1,30.03,WSW,250,0.0,0.0,24,0.00,,,0.00,VWS V14.01,2013-09-10 17:53:00,
2013-09-10 10:58:00,63.7,26.2,30.03,WSW,250,0.0,0.0,24,0.00,,,0.00,VWS V14.01,2013-09-10 17:58:00,
2013-09-10 11:04:00,63.9,26.4,30.03,WSW,250,0.0,0.0,24,0.00,,,0.00,VWS V14.01,2013-09-10 18:04:00,
2013-09-10 11:09:00,64.0,26.5,30.03,WSW,250,0.0,0.0,24,0.00,,,0.00,VWS V14.01,2013-09-10 18:09:00,
2013-09-10 11:14:00,64.2,26.7,30.03,WSW,250,0.0,0.0,24,0.00,,,0.00,VWS V14.01,2013-09-10 18:14:00,
2013-09-10 11:19:00,64.6,26.0,30.03,WSW,250,0.0,0.0,23,0.00,,,0.00,VWS V14.01,2013-09-10 18:19:00,
2013-09-10 11:24:00,65.3,26.6,30.03,WSW,250,0.0,0.0,23,0.00,,,0.00,VWS V14.01,2013-09-10 18:24:00,
2013-09-10 11:30:00,66.0,27.2,30.03,WSW,250,0.0,0.0,23,0.00,,,0.00,VWS V14.01,2013-09-10 18:30:00,
2013-09-10 11:35:00,66.6,27.6,30.03,WSW,250,0.0,0.0,23,0.00,,,0.00,VWS V14.01,2013-09-10 18:35:00,
2013-09-10 11:41:00,66.7,27.8,30.03,WSW,250,0.0,0.0,23,0.00,,,0.00,VWS V14.01,2013-09-10 18:41:00,
2013-09-10 11:46:00,67.3,28.2,30.03,WSW,250,0.0,0.0,23,0.00,,,0.00,VWS V14.01,2013-09-10 18:46:00,
2013-09-10 11:52:00,67.1,28.1,30.00,WSW,250,0.0,0.0,23,0.00,,,0.00,VWS V14.01,2013-09-10 18:52:00,
2013-09-10 11:58:00,68.2,29.0,30.00,WSW,250,0.0,0.0,23,0.00,,,0.00,VWS V14.01,2013-09-10 18:58:00,
2013-09-10 12:03:00,69.3,29.9,30.00,WSW,250,0.0,0.0,23,0.00,,,0.00,VWS V14.01,2013-09-10 19:03:00,
2013-09-10 12:09:00,70.0,29.4,30.00,WSW,250,0.0,0.0,22,0.00,,,0.00,VWS V14.01,2013-09-10 19:09:00,
2013-09-10 12:14:00,70.3,29.7,30.00,WSW,250,0.0,0.0,22,0.00,,,0.00,VWS V14.01,2013-09-10 19:14:00,
2013-09-10 12:20:00,70.9,30.2,30.00,WSW,250,0.0,0.0,22,0.00,,,0.00,VWS V14.01,2013-09-10 19:20:00,
2013-09-10 12:25:00,70.9,30.2,30.00,WSW,250,0.0,0.0,22,0.00,,,0.00,VWS V14.01,2013-09-10 19:25:00,
2013-09-10 12:31:00,71.4,30.6,30.00,WSW,250,0.0,0.0,22,0.00,,,0.00,VWS V14.01,2013-09-10 19:31:00,
2013-09-10 12:36:00,71.4,30.6,30.00,WSW,251,0.0,0.0,22,0.00,,,0.00,VWS V14.01,2013-09-10 19:36:00,
2013-09-10 12:41:00,72.1,31.2,30.00,North,6,0.0,0.0,22,0.00,,,0.00,VWS V14.01,2013-09-10 19:41:00,
2013-09-10 12:47:00,72.5,31.5,30.00,North,6,0.0,0.0,22,0.00,,,0.00,VWS V14.01,2013-09-10 19:47:00,
2013-09-10 12:53:00,73.0,32.0,30.00,North,6,0.0,0.0,22,0.00,,,0.00,VWS V14.01,2013-09-10 19:53:00,
2013-09-10 12:58:00,73.6,31.3,30.00,WNW,303,0.0,0.0,21,0.00,,,0.00,VWS V14.01,2013-09-10 19:58:00,
2013-09-10 13:03:00,74.3,31.9,30.00,WNW,303,0.0,0.0,21,0.00,,,0.00,VWS V14.01,2013-09-10 20:03:00,
2013-09-10 13:08:00,74.7,32.2,30.00,ESE,115,0.0,0.0,21,0.00,,,0.00,VWS V14.01,2013-09-10 20:08:00,
2013-09-10 13:13:00,75.2,32.6,30.00,ESE,115,0.0,0.0,21,0.00,,,0.00,VWS V14.01,2013-09-10 20:13:00,
2013-09-10 13:18:00,75.4,32.8,30.00,ESE,115,0.0,0.0,21,0.00,,,0.00,VWS V14.01,2013-09-10 20:18:00,
2013-09-10 13:24:00,75.9,33.2,29.97,ESE,115,0.0,0.0,21,0.00,,,0.00,VWS V14.01,2013-09-10 20:24:00,
2013-09-10 13:30:00,75.9,32.0,29.97,ESE,115,0.0,0.0,20,0.00,,,0.00,VWS V14.01,2013-09-10 20:30:00,
2013-09-10 13:35:00,76.5,32.5,29.97,ESE,115,0.0,0.0,20,0.00,,,0.00,VWS V14.01,2013-09-10 20:35:00,
2013-09-10 13:41:00,77.5,33.3,29.97,ESE,115,0.0,0.0,20,0.00,,,0.00,VWS V14.01,2013-09-10 20:41:00,
2013-09-10 13:46:00,77.4,33.2,29.97,SE,132,0.0,0.0,20,0.00,,,0.00,VWS V14.01,2013-09-10 20:46:00,
2013-09-10 13:51:00,77.7,33.5,29.97,ESE,112,0.0,0.0,20,0.00,,,0.00,VWS V14.01,2013-09-10 20:51:00,
2013-09-10 13:56:00,78.6,34.2,29.97,East,99,0.0,0.0,20,0.00,,,0.00,VWS V14.01,2013-09-10 20:56:00,
2013-09-10 14:02:00,79.2,30.6,29.97,ENE,74,3.6,4.0,17,0.00,,,0.00,VWS V14.01,2013-09-10 21:02:00,
2013-09-10 14:07:00,80.2,31.5,29.97,ENE,67,4.0,4.0,17,0.00,,,0.00,VWS V14.01,2013-09-10 21:07:00,
2013-09-10 14:12:00,80.6,31.8,29.97,East,91,0.0,0.0,17,0.00,,,0.00,VWS V14.01,2013-09-10 21:12:00,
2013-09-10 14:18:00,80.8,32.0,29.97,NE,50,0.0,4.0,17,0.00,,,0.00,VWS V14.01,2013-09-10 21:18:00,
2013-09-10 14:23:00,81.5,32.5,29.97,East,83,0.0,0.0,17,0.00,,,0.00,VWS V14.01,2013-09-10 21:23:00,
2013-09-10 14:29:00,81.7,32.7,29.97,ESE,114,3.1,3.1,17,0.00,,,0.00,VWS V14.01,2013-09-10 21:29:00,
2013-09-10 14:34:00,81.7,32.7,29.97,East,85,3.1,5.8,17,0.00,,,0.00,VWS V14.01,2013-09-10 21:34:00,
2013-09-10 14:39:00,82.4,28.5,29.97,East,89,0.0,4.0,14,0.00,,,0.00,VWS V14.01,2013-09-10 21:39:00,
2013-09-10 14:44:00,82.0,33.0,29.97,SE,129,0.0,2.7,17,0.00,,,0.00,VWS V14.01,2013-09-10 21:44:00,
2013-09-10 14:49:00,81.9,32.8,29.97,East,94,2.2,2.7,17,0.00,,,0.00,VWS V14.01,2013-09-10 21:49:00,
2013-09-10 14:54:00,82.6,28.6,29.97,East,87,0.0,3.1,14,0.00,,,0.00,VWS V14.01,2013-09-10 21:54:00,
2013-09-10 15:00:00,82.6,28.6,29.97,ESE,113,2.7,5.4,14,0.00,,,0.00,VWS V14.01,2013-09-10 22:00:00,
2013-09-10 15:05:00,82.0,33.0,29.97,ESE,112,0.0,0.0,17,0.00,,,0.00,VWS V14.01,2013-09-10 22:05:00,
2013-09-10 15:10:00,82.2,28.3,29.97,ESE,112,0.0,0.0,14,0.00,,,0.00,VWS V14.01,2013-09-10 22:10:00,
2013-09-10 15:15:00,82.8,28.8,29.97,East,95,4.5,6.3,14,0.00,,,0.00,VWS V14.01,2013-09-10 22:15:00,
2013-09-10 15:20:00,82.2,33.1,29.97,East,96,0.0,0.0,17,0.00,,,0.00,VWS V14.01,2013-09-10 22:20:00,
2013-09-10 15:26:00,81.3,32.4,29.94,East,96,0.0,0.0,17,0.00,,,0.00,VWS V14.01,2013-09-10 22:26:00,
2013-09-10 15:31:00,81.9,28.0,29.94,East,97,0.0,0.0,14,0.00,,,0.00,VWS V14.01,2013-09-10 22:31:00,
2013-09-10 15:36:00,81.5,27.8,29.94,East,97,0.0,0.0,14,0.00,,,0.00,VWS V14.01,2013-09-10 22:36:00,
2013-09-10 15:42:00,81.3,32.4,29.94,East,97,0.0,0.0,17,0.00,,,0.00,VWS V14.01,2013-09-10 22:42:00,
2013-09-10 15:47:00,81.0,27.3,29.94,East,97,0.0,0.0,14,0.00,,,0.00,VWS V14.01,2013-09-10 22:47:00,
2013-09-10 15:53:00,81.3,27.6,29.94,East,97,0.0,0.0,14,0.00,,,0.00,VWS V14.01,2013-09-10 22:53:00,
2013-09-10 15:59:00,81.5,32.5,29.94,East,97,0.0,0.0,17,0.00,,,0.00,VWS V14.01,2013-09-10 22:59:00,
2013-09-10 16:05:00,81.1,32.2,29.94,East,97,0.0,0.0,17,0.00,,,0.00,VWS V14.01,2013-09-10 23:05:00,
2013-09-10 16:11:00,79.9,31.2,29.94,East,94,0.0,0.0,17,0.00,,,0.00,VWS V14.01,2013-09-10 23:11:00,
2013-09-10 16:16:00,79.5,30.9,29.94,East,94,0.0,0.0,17,0.00,,,0.00,VWS V14.01,2013-09-10 23:16:00,
2013-09-10 16:21:00,79.3,34.8,29.94,ESE,109,0.0,0.0,20,0.00,,,0.00,VWS V14.01,2013-09-10 23:21:00,
2013-09-10 16:27:00,78.8,34.4,29.94,ESE,109,0.0,0.0,20,0.00,,,0.00,VWS V14.01,2013-09-10 23:27:00,
2013-09-10 16:32:00,78.6,34.2,29.94,NE,56,0.0,0.0,20,0.00,,,0.00,VWS V14.01,2013-09-10 23:32:00,
2013-09-10 16:38:00,78.8,34.4,29.94,NE,56,0.0,0.0,20,0.00,,,0.00,VWS V14.01,2013-09-10 23:38:00,
2013-09-10 16:43:00,78.8,34.4,29.94,East,99,0.0,0.0,20,0.00,,,0.00,VWS V14.01,2013-09-10 23:43:00,
2013-09-10 16:49:00,78.6,34.2,29.94,East,99,0.0,0.0,20,0.00,,,0.00,VWS V14.01,2013-09-10 23:49:00,
2013-09-10 16:54:00,78.4,34.1,29.94,East,99,0.0,0.0,20,0.00,,,0.00,VWS V14.01,2013-09-10 23:54:00,
2013-09-10 17:00:00,77.9,33.6,29.94,ESE,104,0.0,0.0,20,0.00,,,0.00,VWS V14.01,2013-09-11 00:00:00,
2013-09-10 17:05:00,77.7,33.5,29.94,North,0,0.0,0.0,20,0.00,,,0.00,VWS V14.01,2013-09-11 00:05:00,
2013-09-10 17:11:00,77.7,33.5,29.94,East,87,0.0,0.0,20,0.00,,,0.00,VWS V14.01,2013-09-11 00:11:00,
2013-09-10 17:17:00,77.5,33.3,29.94,North,353,0.0,0.0,20,0.00,,,0.00,VWS V14.01,2013-09-11 00:17:00,
2013-09-10 17:23:00,77.0,32.9,29.94,ESE,110,0.0,0.0,20,0.00,,,0.00,VWS V14.01,2013-09-11 00:23:00,
2013-09-10 17:29:00,76.8,32.8,29.94,ENE,71,0.0,0.0,20,0.00,,,0.00,VWS V14.01,2013-09-11 00:29:00,
2013-09-10 17:35:00,76.1,33.4,29.94,ESE,108,0.0,0.0,21,0.00,,,0.00,VWS V14.01,2013-09-11 00:35:00,
2013-09-10 17:41:00,75.6,32.9,29.94,ESE,102,0.0,0.0,21,0.00,,,0.00,VWS V14.01,2013-09-11 00:41:00,
2013-09-10 17:46:00,75.7,31.9,29.94,North,353,0.0,0.0,20,0.00,,,0.00,VWS V14.01,2013-09-11 00:46:00,
2013-09-10 17:52:00,75.9,32.0,29.94,NNW,343,0.0,0.0,20,0.00,,,0.00,VWS V14.01,2013-09-11 00:52:00,
2013-09-10 17:58:00,75.7,31.9,29.94,NNW,346,0.0,0.0,20,0.00,,,0.00,VWS V14.01,2013-09-11 00:58:00,
2013-09-10 18:03:00,75.4,31.6,29.94,NNW,346,0.0,0.0,20,0.00,,,0.00,VWS V14.01,2013-09-11 01:03:00,
2013-09-10 18:09:00,75.2,32.6,29.94,NNW,346,0.0,0.0,21,0.00,,,0.00,VWS V14.01,2013-09-11 01:09:00,
2013-09-10 18:14:00,74.8,32.3,29.94,North,353,0.0,0.0,21,0.00,,,0.00,VWS V14.01,2013-09-11 01:14:00,
2013-09-10 18:20:00,74.3,31.9,29.94,North,353,0.0,0.0,21,0.00,,,0.00,VWS V14.01,2013-09-11 01:20:00,
2013-09-10 18:25:00,73.9,31.6,29.94,North,353,0.0,0.0,21,0.00,,,0.00,VWS V14.01,2013-09-11 01:25:00,
2013-09-10 18:30:00,73.8,31.4,29.94,NNW,345,0.0,0.0,21,0.00,,,0.00,VWS V14.01,2013-09-11 01:30:00,
2013-09-10 18:35:00,73.8,31.4,29.94,NNW,343,5.4,5.4,21,0.00,,,0.00,VWS V14.01,2013-09-11 01:35:00,
2013-09-10 18:41:00,73.6,31.3,29.94,NNW,346,0.0,0.0,21,0.00,,,0.00,VWS V14.01,2013-09-11 01:41:00,
2013-09-10 18:46:00,72.9,31.8,29.94,NNW,346,0.0,0.0,22,0.00,,,0.00,VWS V14.01,2013-09-11 01:46:00,
2013-09-10 18:52:00,72.7,31.7,29.94,NNW,346,0.0,0.0,22,0.00,,,0.00,VWS V14.01,2013-09-11 01:52:00,
2013-09-10 18:57:00,72.5,31.5,29.94,SW,225,3.1,4.0,22,0.00,,,0.00,VWS V14.01,2013-09-11 01:57:00,
2013-09-10 19:03:00,71.8,30.9,29.94,SW,233,3.6,4.0,22,0.00,,,0.00,VWS V14.01,2013-09-11 02:03:00,
2013-09-10 19:08:00,71.1,31.4,29.94,SSW,212,0.0,0.0,23,0.00,,,0.00,VWS V14.01,2013-09-11 02:08:00,
2013-09-10 19:13:00,70.0,30.5,29.94,WSW,246,0.0,0.0,23,0.00,,,0.00,VWS V14.01,2013-09-11 02:13:00,
2013-09-10 19:19:00,69.4,30.1,29.94,WSW,246,0.0,0.0,23,0.00,,,0.00,VWS V14.01,2013-09-11 02:19:00,
2013-09-10 19:25:00,69.1,29.8,29.94,WSW,246,0.0,0.0,23,0.00,,,0.00,VWS V14.01,2013-09-11 02:25:00,
2013-09-10 19:31:00,68.7,29.5,29.94,WSW,246,0.0,0.0,23,0.00,,,0.00,VWS V14.01,2013-09-11 02:31:00,
2013-09-10 19:36:00,68.4,29.1,29.94,WSW,246,0.0,0.0,23,0.00,,,0.00,VWS V14.01,2013-09-11 02:36:00,
2013-09-10 19:41:00,68.4,29.1,29.94,WSW,246,0.0,0.0,23,0.00,,,0.00,VWS V14.01,2013-09-11 02:41:00,
2013-09-10 19:47:00,68.0,28.9,29.94,WSW,246,0.0,0.0,23,0.00,,,0.00,VWS V14.01,2013-09-11 02:47:00,
2013-09-10 19:52:00,67.8,28.7,29.97,WSW,246,0.0,0.0,23,0.00,,,0.00,VWS V14.01,2013-09-11 02:52:00,
2013-09-10 19:57:00,67.6,28.5,29.97,WSW,246,0.0,0.0,23,0.00,,,0.00,VWS V14.01,2013-09-11 02:57:00,
2013-09-10 20:02:00,67.5,28.4,29.97,WSW,246,0.0,0.0,23,0.00,,,0.00,VWS V14.01,2013-09-11 03:02:00,
2013-09-10 20:08:00,67.3,28.2,29.97,WSW,246,0.0,0.0,23,0.00,,,0.00,VWS V14.01,2013-09-11 03:08:00,
2013-09-10 20:13:00,67.1,28.1,29.97,WSW,246,0.0,0.0,23,0.00,,,0.00,VWS V14.01,2013-09-11 03:13:00,
2013-09-10 20:19:00,66.9,27.9,29.97,WSW,246,0.0,0.0,23,0.00,,,0.00,VWS V14.01,2013-09-11 03:19:00,
2013-09-10 20:25:00,66.6,27.6,29.97,WSW,246,0.0,0.0,23,0.00,,,0.00,VWS V14.01,2013-09-11 03:25:00,
2013-09-10 20:30:00,66.4,27.5,29.97,WSW,246,0.0,0.0,23,0.00,,,0.00,VWS V14.01,2013-09-11 03:30:00,
2013-09-10 20:35:00,66.2,27.3,29.97,WSW,246,0.0,0.0,23,0.00,,,0.00,VWS V14.01,2013-09-11 03:35:00,
2013-09-10 20:41:00,66.0,28.2,29.97,WSW,246,0.0,0.0,24,0.00,,,0.00,VWS V14.01,2013-09-11 03:41:00,
2013-09-10 20:46:00,65.8,28.1,29.97,WSW,246,0.0,0.0,24,0.00,,,0.00,VWS V14.01,2013-09-11 03:46:00,
2013-09-10 20:51:00,65.7,26.9,29.97,WSW,246,0.0,0.0,23,0.00,,,0.00,VWS V14.01,2013-09-11 03:51:00,
2013-09-10 20:56:00,65.5,26.7,29.97,WSW,246,0.0,0.0,23,0.00,,,0.00,VWS V14.01,2013-09-11 03:56:00,
2013-09-10 21:02:00,65.1,26.4,29.97,WSW,246,0.0,0.0,23,0.00,,,0.00,VWS V14.01,2013-09-11 04:02:00,
2013-09-10 21:03:00,65.1,27.5,29.97,WSW,246,0.0,0.0,24,0.00,,,0.00,VWS V14.01,2013-09-11 04:03:00,
2013-09-10 21:04:00,65.1,27.5,29.97,WSW,246,0.0,0.0,24,0.00,,,0.00,VWS V14.01,2013-09-11 04:04:00,
2013-09-10 21:05:00,64.9,27.3,29.97,WSW,246,0.0,0.0,24,0.00,,,0.00,VWS V14.01,2013-09-11 04:05:00,
2013-09-10 21:08:00,64.8,27.2,30.00,WSW,246,0.0,0.0,24,0.00,,,0.00,VWS V14.01,2013-09-11 04:08:00,
2013-09-10 21:13:00,64.6,27.0,30.00,WSW,246,0.0,0.0,24,0.00,,,0.00,VWS V14.01,2013-09-11 04:13:00,
2013-09-10 21:18:00,64.4,26.9,30.00,WSW,246,0.0,0.0,24,0.00,,,0.00,VWS V14.01,2013-09-11 04:18:00,
2013-09-10 21:23:00,64.2,26.7,30.00,WSW,246,0.0,0.0,24,0.00,,,0.00,VWS V14.01,2013-09-11 04:23:00,
2013-09-10 21:30:00,64.0,26.5,30.00,WSW,246,0.0,0.0,24,0.00,,,0.00,VWS V14.01,2013-09-11 04:30:00,
2013-09-10 21:35:00,63.9,26.4,30.00,WSW,246,0.0,0.0,24,0.00,,,0.00,VWS V14.01,2013-09-11 04:35:00,
2013-09-10 21:40:00,63.7,26.2,30.00,WSW,246,0.0,0.0,24,0.00,,,0.00,VWS V14.01,2013-09-11 04:40:00,
2013-09-10 21:46:00,63.5,26.1,30.00,WSW,246,0.0,0.0,24,0.00,,,0.00,VWS V14.01,2013-09-11 04:46:00,
2013-09-10 21:51:00,63.3,25.9,30.00,WSW,246,0.0,0.0,24,0.00,,,0.00,VWS V14.01,2013-09-11 04:51:00,
2013-09-10 21:57:00,63.1,25.8,30.00,WSW,246,0.0,0.0,24,0.00,,,0.00,VWS V14.01,2013-09-11 04:57:00,
2013-09-10 22:03:00,63.0,25.6,30.00,WSW,246,0.0,0.0,24,0.00,,,0.00,VWS V14.01,2013-09-11 05:03:00,
2013-09-10 22:08:00,63.0,25.6,30.00,WSW,246,0.0,0.0,24,0.00,,,0.00,VWS V14.01,2013-09-11 05:08:00,
2013-09-10 22:13:00,62.6,25.3,30.00,WSW,246,0.0,0.0,24,0.00,,,0.00,VWS V14.01,2013-09-11 05:13:00,
2013-09-10 22:19:00,62.6,25.3,30.00,WSW,246,0.0,0.0,24,0.00,,,0.00,VWS V14.01,2013-09-11 05:19:00,
2013-09-10 22:25:00,62.4,25.2,30.00,WSW,246,0.0,0.0,24,0.00,,,0.00,VWS V14.01,2013-09-11 05:25:00,
2013-09-10 22:30:00,62.2,25.0,30.00,WSW,246,0.0,0.0,24,0.00,,,0.00,VWS V14.01,2013-09-11 05:30:00,
2013-09-10 22:36:00,62.1,24.9,30.00,WSW,246,0.0,0.0,24,0.00,,,0.00,VWS V14.01,2013-09-11 05:36:00,
2013-09-10 22:42:00,61.9,24.7,30.00,WSW,246,0.0,0.0,24,0.00,,,0.00,VWS V14.01,2013-09-11 05:42:00,
2013-09-10 22:47:00,61.9,24.7,30.00,WSW,246,0.0,0.0,24,0.00,,,0.00,VWS V14.01,2013-09-11 05:47:00,
2013-09-10 22:52:00,61.7,24.6,30.00,WSW,246,0.0,0.0,24,0.00,,,0.00,VWS V14.01,2013-09-11 05:52:00,
2013-09-10 22:57:00,61.5,24.4,30.00,WSW,246,0.0,0.0,24,0.00,,,0.00,VWS V14.01,2013-09-11 05:57:00,
2013-09-10 23:02:00,61.3,24.3,30.00,WSW,246,0.0,0.0,24,0.00,,,0.00,VWS V14.01,2013-09-11 06:02:00,
2013-09-10 23:07:00,61.3,24.3,30.00,WSW,246,0.0,0.0,24,0.00,,,0.00,VWS V14.01,2013-09-11 06:07:00,
2013-09-10 23:13:00,61.3,24.3,30.00,WSW,246,0.0,0.0,24,0.00,,,0.00,VWS V14.01,2013-09-11 06:13:00,
2013-09-10 23:18:00,61.2,24.1,30.00,WSW,246,0.0,0.0,24,0.00,,,0.00,VWS V14.01,2013-09-11 06:18:00,
2013-09-10 23:23:00,61.0,24.0,30.00,WSW,246,0.0,0.0,24,0.00,,,0.00,VWS V14.01,2013-09-11 06:23:00,
2013-09-10 23:29:00,61.0,24.0,30.00,WSW,246,0.0,0.0,24,0.00,,,0.00,VWS V14.01,2013-09-11 06:29:00,
2013-09-10 23:34:00,60.8,23.8,30.00,WSW,246,0.0,0.0,24,0.00,,,0.00,VWS V14.01,2013-09-11 06:34:00,
2013-09-10 23:39:00,60.6,24.6,30.03,WSW,246,0.0,0.0,25,0.00,,,0.00,VWS V14.01,2013-09-11 06:39:00,
2013-09-10 23:45:00,60.4,24.5,30.03,WSW,246,0.0,0.0,25,0.00,,,0.00,VWS V14.01,2013-09-11 06:45:00,
2013-09-10 23:50:00,60.4,24.5,30.03,WSW,246,0.0,0.0,25,0.00,,,0.00,VWS V14.01,2013-09-11 06:50:00,
2013-09-10 23:56:00,60.3,24.3,30.03,WSW,246,0.0,0.0,25,0.00,,,0.00,VWS V14.01,2013-09-11 06:56:00,